• In Netherlands
  • List of Countries
  • For 7 days
  • Water Temperature
  • Satellite Maps
  • Weather Map
  • Weather Widgets
  • user-avatar
    Login

    Hourly Weather Kaprun

    Today, 21 September, Friday

    Time Temperature Precipitation Wind Pressure Humidity
    00:00 +7°C° 0 mm 1 mps 600 mmHg 85%
    01:00 +7°C° 0 mm 1 mps 599 mmHg 85%
    02:00 +6°C° 0 mm 2 mps 599 mmHg 86%
    03:00 +6°C° 0 mm 2 mps 599 mmHg 86%
    04:00 +5°C° 0 mm 2 mps 598 mmHg 86%
    05:00 +7°C° 0 mm 1 mps 599 mmHg 85%
    06:00 +7°C° 0 mm 1 mps 599 mmHg 84%
    07:00 +8°C° 0 mm 2 mps 599 mmHg 82%
    08:00 +12°C° 0 mm 1 mps 600 mmHg 72%
    09:00 +14°C° 0 mm 1 mps 601 mmHg 62%
    10:00 +18°C° 0 mm 1 mps 602 mmHg 52%
    11:00 +18°C° 0 mm 1 mps 602 mmHg 50%
    12:00 +19°C° 0 mm 1 mps 602 mmHg 48%
    13:00 +18°C° 0 mm 2 mps 602 mmHg 47%
    14:00 +18°C° 0.2 mm 2 mps 602 mmHg 52%
    15:00 +17°C° 0.2 mm 2 mps 601 mmHg 57%
    16:00 +16°C° 0.2 mm 2 mps 601 mmHg 63%
    17:00 +14°C° 0.8 mm 2 mps 600 mmHg 73%
    18:00 +12°C° 0.8 mm 1 mps 599 mmHg 83%
    19:00 +10°C° 0.8 mm 1 mps 599 mmHg 93%
    20:00 +10°C° 1 mm 1 mps 599 mmHg 95%
    21:00 +10°C° 1 mm 1 mps 599 mmHg 96%
    22:00 +9°C° 1 mm 1 mps 600 mmHg 98%
    23:00 +9°C° 0.9 mm 1 mps 600 mmHg 98%

    Tomorrow, 22 September, Saturday

    Time Temperature Precipitation Wind Pressure Humidity
    00:00 +9°C° 0.9 mm 1 mps 600 mmHg 98%
    01:00 +7°C° 0.9 mm 2 mps 600 mmHg 98%
    02:00 +6°C° 1.2 mm 2 mps 600 mmHg 98%
    03:00 +5°C° 1.2 mm 2 mps 600 mmHg 98%
    04:00 +5°C° 1.2 mm 2 mps 599 mmHg 98%
    05:00 +4°C° 0.6 mm 2 mps 599 mmHg 97%
    06:00 +4°C° 0.6 mm 2 mps 599 mmHg 97%
    07:00 +3°C° 0.6 mm 2 mps 599 mmHg 96%
    08:00 +4°C° 0.1 mm 2 mps 600 mmHg 92%
    09:00 +5°C° 0.1 mm 2 mps 600 mmHg 89%
    10:00 +5°C° 0.1 mm 2 mps 601 mmHg 85%
    11:00 +8°C° 0 mm 1 mps 601 mmHg 79%
    12:00 +9°C° 0 mm 1 mps 602 mmHg 74%
    13:00 +10°C° 0 mm 1 mps 602 mmHg 69%
    14:00 +10°C° 0.1 mm 1 mps 602 mmHg 70%
    15:00 +10°C° 0.1 mm 1 mps 602 mmHg 71%
    16:00 +9°C° 0.1 mm 1 mps 601 mmHg 73%
    17:00 +8°C° 0.1 mm 1 mps 601 mmHg 79%
    18:00 +7°C° 0.1 mm 1 mps 601 mmHg 84%
    19:00 +6°C° 0.1 mm 1 mps 601 mmHg 90%
    20:00 +5°C° 0.1 mm 0 mps 601 mmHg 90%
    21:00 +5°C° 0.1 mm 0 mps 601 mmHg 90%
    22:00 +5°C° 0.1 mm 0 mps 601 mmHg 91%
    23:00 +5°C° 0.1 mm 0 mps 601 mmHg 90%

    Day after tomorrow, 23 September, Sunday

    Time Temperature Precipitation Wind Pressure Humidity
    00:00 +7°C° 0.1 mm 1 mps 601 mmHg 90%
    01:00 +7°C° 0.1 mm 1 mps 601 mmHg 89%
    02:00 +7°C° 0.2 mm 1 mps 601 mmHg 90%
    03:00 +7°C° 0.2 mm 1 mps 601 mmHg 91%
    04:00 +7°C° 0.2 mm 1 mps 601 mmHg 92%
    05:00 +8°C° 0.2 mm 1 mps 601 mmHg 93%
    06:00 +8°C° 0.2 mm 1 mps 601 mmHg 93%
    07:00 +8°C° 0.2 mm 1 mps 601 mmHg 93%
    08:00 +10°C° 0.1 mm 1 mps 601 mmHg 88%
    09:00 +11°C° 0.1 mm 1 mps 602 mmHg 83%
    10:00 +13°C° 0.1 mm 1 mps 603 mmHg 78%
    11:00 +14°C° 0 mm 1 mps 603 mmHg 72%
    12:00 +15°C° 0 mm 2 mps 603 mmHg 67%
    13:00 +17°C° 0 mm 2 mps 604 mmHg 62%
    14:00 +16°C° 0.1 mm 2 mps 603 mmHg 65%
    15:00 +16°C° 0.1 mm 2 mps 602 mmHg 68%
    16:00 +16°C° 0.1 mm 2 mps 602 mmHg 71%
    17:00 +14°C° 0.2 mm 2 mps 601 mmHg 79%
    18:00 +12°C° 0.2 mm 2 mps 600 mmHg 87%
    19:00 +9°C° 0.2 mm 2 mps 599 mmHg 95%
    20:00 +9°C° 0.5 mm 2 mps 598 mmHg 95%
    21:00 +9°C° 0.5 mm 2 mps 598 mmHg 96%
    22:00 +9°C° 0.5 mm 3 mps 597 mmHg 97%
    23:00 +9°C° 1.1 mm 3 mps 597 mmHg 97%

    24 September, Monday

    Time Temperature Precipitation Wind Pressure Humidity
    00:00 +9°C° 1.1 mm 3 mps 597 mmHg 96%
    01:00 +8°C° 1.1 mm 3 mps 597 mmHg 96%
    02:00 +7°C° 2 mm 3 mps 597 mmHg 96%
    03:00 +4°C° 2 mm 3 mps 598 mmHg 96%
    04:00 +3°C° 2 mm 4 mps 598 mmHg 96%
    05:00 +1°C° 0.3 mm 4 mps 598 mmHg 96%
    06:00 +1°C° 0.3 mm 3 mps 599 mmHg 95%
    07:00 0°C° 0.3 mm 3 mps 599 mmHg 95%
    08:00 +1°C° 0.2 mm 3 mps 600 mmHg 91%
    09:00 +1°C° 0.2 mm 3 mps 600 mmHg 87%
    10:00 +1°C° 0.2 mm 3 mps 601 mmHg 83%
    11:00 +2°C° 0.1 mm 3 mps 601 mmHg 79%
    12:00 +2°C° 0.1 mm 3 mps 602 mmHg 75%
    13:00 +3°C° 0.1 mm 3 mps 603 mmHg 71%
    14:00 +2°C° 0 mm 3 mps 602 mmHg 72%
    15:00 +2°C° 0 mm 3 mps 602 mmHg 72%
    16:00 +2°C° 0 mm 3 mps 602 mmHg 73%
    17:00 0°C° 0.1 mm 3 mps 602 mmHg 77%
    18:00 -1°C° 0.1 mm 3 mps 603 mmHg 82%
    19:00 -2°C° 0.1 mm 2 mps 603 mmHg 86%
    20:00 -3°C° 0 mm 2 mps 603 mmHg 88%
    21:00 -3°C° 0 mm 2 mps 603 mmHg 89%
    22:00 -4°C° 0 mm 2 mps 603 mmHg 90%
    23:00 -4°C° 0 mm 2 mps 603 mmHg 90%

    25 September, Tuesday

    Time Temperature Precipitation Wind Pressure Humidity
    00:00 -5°C° 0 mm 2 mps 603 mmHg 89%
    01:00 -5°C° 0 mm 2 mps 603 mmHg 89%
    02:00 -5°C° 0 mm 2 mps 603 mmHg 88%
    03:00 -5°C° 0 mm 2 mps 603 mmHg 87%
    04:00 -5°C° 0 mm 2 mps 604 mmHg 87%
    05:00 -5°C° 0 mm 2 mps 604 mmHg 84%
    06:00 -4°C° 0 mm 2 mps 604 mmHg 81%
    07:00 -4°C° 0 mm 2 mps 605 mmHg 79%
    08:00 -2°C° 0 mm 2 mps 605 mmHg 69%
    09:00 +2°C° 0 mm 2 mps 606 mmHg 59%
    10:00 +4°C° 0 mm 2 mps 607 mmHg 49%
    11:00 +5°C° 0 mm 2 mps 607 mmHg 45%
    12:00 +6°C° 0 mm 2 mps 607 mmHg 41%
    13:00 +9°C° 0 mm 1 mps 608 mmHg 37%
    14:00 +8°C° 0 mm 1 mps 607 mmHg 39%
    15:00 +8°C° 0 mm 1 mps 607 mmHg 42%
    16:00 +8°C° 0 mm 1 mps 606 mmHg 44%
    17:00 +5°C° 0 mm 1 mps 605 mmHg 57%
    18:00 +2°C° 0 mm 1 mps 604 mmHg 69%
    19:00 0°C° 0 mm 1 mps 603 mmHg 82%
    20:00 0°C° 0 mm 1 mps 604 mmHg 81%
    21:00 -1°C° 0 mm 1 mps 604 mmHg 81%
    22:00 -1°C° 0 mm 1 mps 604 mmHg 80%
    23:00 -1°C° 0 mm 1 mps 604 mmHg 76%

    26 September, Wednesday

    Time Temperature Precipitation Wind Pressure Humidity
    00:00 -1°C° 0 mm 1 mps 604 mmHg 72%
    01:00 -1°C° 0 mm 1 mps 604 mmHg 69%
    02:00 -1°C° 0 mm 1 mps 604 mmHg 66%
    03:00 -1°C° 0 mm 1 mps 604 mmHg 63%
    04:00 -3°C° 0 mm 2 mps 603 mmHg 60%
    05:00 -2°C° 0 mm 2 mps 604 mmHg 58%
    06:00 -2°C° 0 mm 2 mps 604 mmHg 55%
    07:00 -1°C° 0 mm 2 mps 604 mmHg 53%
    08:00 +2°C° 0 mm 2 mps 606 mmHg 46%
    09:00 +5°C° 0 mm 2 mps 607 mmHg 38%
    10:00 +8°C° 0 mm 2 mps 608 mmHg 31%
    11:00 +9°C° 0 mm 2 mps 608 mmHg 30%
    12:00 +10°C° 0 mm 2 mps 608 mmHg 30%
    13:00 +12°C° 0 mm 2 mps 608 mmHg 29%
    14:00 +10°C° 0 mm 2 mps 608 mmHg 33%
    15:00 +10°C° 0 mm 2 mps 608 mmHg 37%
    16:00 +10°C° 0 mm 2 mps 607 mmHg 41%
    17:00 +8°C° 0 mm 1 mps 606 mmHg 51%
    18:00 +5°C° 0 mm 1 mps 605 mmHg 62%
    19:00 +2°C° 0 mm 1 mps 604 mmHg 73%
    20:00 +2°C° 0 mm 1 mps 604 mmHg 69%
    21:00 +2°C° 0 mm 1 mps 604 mmHg 65%
    22:00 +2°C° 0 mm 1 mps 604 mmHg 61%
    23:00 +2°C° 0 mm 1 mps 604 mmHg 59%
    Show more